Temp_Advection
nan nan nan nan nan nan nan nan nan nan nan nan nan nan nan nan nan nan nan nan nan nan nan nan nan nan nan nan nan nan nan nan nan nan nan nan nan nan nan nan nan nan nan nan nan nan nan nan nan nan nan nan nan nan nan nan nan nan nan nan nan nan nan nan nan nan nan nan nan
nan 0 0 -0 -0 -0 -0 -0 0 0 0 0 0 -0 -0 -0 -0 -0 -0 -0 0 -0 -0 -0 -0 -1 -1 -1 -0 -0 -0 -0 -0 -0 -0 -1 -0 -0 -0 -0 0 0 0 0 0 1 1 1 0 0 0 0 -0 -0 -0 -0 -0 -0 -0 -0 -0 -0 -0 -1 -1 -1 0 1 nan
nan -0 -0 -0 -0 -0 -0 -0 0 0 0 0 0 0 0 -0 -0 -0 -0 -0 -0 -0 -0 -0 -1 -1 -1 -1 -0 -0 0 0 0 -0 -0 -0 -0 -0 -0 -0 0 0 0 0 0 1 1 1 0 0 0 0 -0 -0 -0 -0 -0 -0 -1 -0 -0 -0 -1 -1 -1 -0 -0 0 nan
nan -0 -0 -0 -0 -0 -0 -0 -0 -0 0 0 0 0 0 0 -0 -0 -0 -0 -0 -0 -0 -0 -1 -1 -1 -1 -1 -0 -0 0 0 -0 -0 -0 -0 -0 -0 0 0 0 0 0 0 1 1 1 0 0 0 0 0 -0 -0 0 0 -0 -0 -0 -0 -0 -0 -1 -0 -0 -0 -0 nan
nan -0 -0 -0 -0 -0 -0 -0 -0 -0 -0 -0 0 0 0 0 0 -0 -0 -0 -0 -0 -0 -0 -1 -1 -1 -1 -1 -1 -1 -0 0 -0 -0 -0 -0 -0 -0 -0 0 0 0 0 0 1 1 1 1 0 0 0 0 -0 -0 0 1 0 0 -0 -0 -0 -0 -0 -0 0 0 0 nan
nan -0 -0 -0 -0 -0 -0 -0 -0 -0 -0 -0 -0 -0 -0 -0 -0 -0 -0 -0 -0 -0 -0 -0 -0 -1 -1 -1 -1 -1 -1 -1 -0 -0 -0 -0 -0 -0 -0 -0 0 0 0 1 0 1 1 1 1 0 0 0 -0 -0 -0 0 0 0 0 -0 -0 -0 -0 -0 0 0 1 1 nan
nan -0 -0 -0 -1 -0 -0 -0 -1 -0 -0 -0 -0 -0 -0 -0 -0 -0 -0 -0 -0 -0 -0 -0 -0 -0 -0 -1 -1 -1 -1 -1 -0 -0 -0 -0 -0 -0 -0 -0 0 0 0 0 0 1 1 1 1 0 0 -0 -0 -0 -0 0 0 0 -0 -0 -0 -1 -1 -0 0 0 0 0 nan
nan -0 -1 -1 -1 -1 -1 -1 -1 -1 -0 -0 -0 -0 0 0 0 0 0 -0 -0 -0 -0 -0 -0 -0 -0 -0 -0 -0 -0 -0 -0 -0 -0 -0 -0 -0 -0 -0 -0 0 0 0 0 0 1 0 0 0 0 -0 -0 -0 -0 0 0 0 -0 -0 -0 -0 -1 -1 -1 -0 -0 -0 nan
nan -0 -1 -1 -1 -1 -1 -1 -1 -1 -0 -0 -0 0 0 0 0 0 0 0 0 0 0 0 0 0 0 0 0 0 -0 -0 -0 0 0 0 0 0 0 0 0 0 0 0 0 1 0 0 0 0 -0 -0 -0 -0 0 1 1 1 0 -0 -0 0 0 -0 -1 -1 -1 -1 nan
nan -0 -1 -0 -0 -0 -0 -0 -0 -0 -0 -0 -0 0 0 0 0 0 0 0 0 0 0 0 0 0 0 0 0 0 -0 -0 -0 -0 0 0 0 0 0 0 0 0 1 1 1 1 1 1 0 0 0 0 0 0 1 1 1 0 0 0 -0 0 1 2 1 0 -0 -1 nan
nan -0 -0 -0 -0 -0 -0 -0 -0 -0 -0 -0 -0 -0 -0 0 0 0 0 0 0 0 0 0 0 0 0 0 0 0 0 -0 -0 -0 -0 -0 -0 0 0 0 0 0 1 1 1 1 1 1 0 0 0 1 1 1 1 1 1 1 0 0 0 -0 0 2 3 3 2 1 nan
nan 0 0 0 -0 -0 -0 -0 0 -0 -0 0 -0 -0 -0 -0 0 0 0 0 0 0 0 0 0 0 0 -0 -0 -0 -0 0 -0 -0 -0 -0 -0 -0 -0 -0 -0 0 0 1 1 1 1 1 0 0 1 1 1 1 1 1 1 1 -0 -0 -0 -0 -1 -0 2 3 3 3 nan
nan 0 0 0 0 0 0 0 0 0 0 0 0 -0 0 0 0 -0 -0 -0 -0 -0 -0 -0 0 -0 -0 -0 -0 -0 -0 -0 0 -0 -0 -0 -0 -0 -0 -0 -0 -0 -0 0 1 1 1 1 1 0 0 1 2 2 1 1 1 1 -0 -1 -1 -1 -1 -1 0 2 3 3 nan
nan 0 0 0 0 0 0 0 0 0 0 0 0 0 0 0 0 0 0 -0 -0 -0 -0 -0 -0 -0 -0 -0 -0 -0 -0 -0 -0 -0 -0 -0 -0 -0 -0 -0 -0 -0 -0 -0 0 0 0 0 0 0 -0 -0 0 1 2 2 1 1 0 -0 -1 -1 -1 -1 -0 1 2 2 nan
nan 1 1 0 0 0 0 0 0 -0 0 0 0 0 0 -0 0 0 0 -0 -0 -0 -0 -0 -0 -0 -0 -0 -0 -0 -1 -0 -1 -0 -0 -0 -0 -0 -0 -0 -0 0 0 0 0 0 0 -0 0 0 -0 -1 -1 -0 1 1 1 1 1 0 -0 -1 -1 -0 0 1 1 1 nan
nan 0 0 0 0 0 0 0 0 -0 -0 -0 -0 -0 -0 -0 -0 -0 -0 -0 -0 -0 -0 -0 -0 -1 -1 -1 -1 -1 -1 -1 -1 -1 -1 -1 -1 -0 -0 -0 -0 0 0 0 0 0 0 0 0 0 -0 -1 -1 -1 -1 0 1 1 0 0 0 0 -0 0 0 0 1 1 nan
nan 0 0 0 -0 0 0 -0 -0 -0 -0 -0 -0 -0 -0 -0 -0 -0 -0 -0 -0 -0 -0 -1 -1 -1 -1 -1 -1 -1 -1 -1 -1 -1 -1 -1 -1 -1 -0 -0 -0 0 0 0 -0 -0 0 0 1 1 0 -0 -1 -1 -1 -0 0 0 0 0 0 0 0 0 1 1 1 1 nan
nan -0 -0 -0 -0 -0 -0 -0 -0 -0 -0 -0 -0 -0 -0 -0 -0 -0 -0 -0 -0 -0 -1 -1 -1 -1 -1 -1 -1 -1 -1 -1 -1 -1 -1 -1 -1 -1 -1 -1 -0 -0 0 0 -0 -0 -0 0 1 1 1 -0 -0 -1 -1 -1 -0 -0 0 0 0 0 1 1 1 1 1 0 nan
nan -1 -1 -1 -1 -1 -1 -1 -1 -1 -1 -1 -0 -0 -0 -0 -0 -0 -0 -0 -0 -1 -1 -1 -1 -1 -1 -1 -1 -0 -0 -1 -1 -1 -1 -1 -1 -1 -1 -0 -0 -0 0 0 -0 0 0 0 0 1 0 0 -0 -0 -0 -0 -0 -0 -0 0 0 0 0 1 1 1 1 0 nan
nan -1 -1 -1 -1 -1 -1 -1 -1 -1 -1 -1 -1 -1 -1 -0 -0 -0 -1 -1 -0 -1 -1 -1 -1 -1 -1 -1 -1 -0 -0 -0 -1 -1 -1 -0 -0 -1 -0 -0 -0 -0 -0 -0 -0 0 0 0 0 0 0 -0 -0 -0 -0 -0 -0 -0 -0 0 0 0 0 1 1 1 1 1 nan
nan -1 -1 -1 -1 -1 -1 -1 -1 -1 -1 -1 -1 -1 -1 -1 -1 -1 -1 -1 -1 -1 -1 -1 -1 -1 -1 -1 -1 -1 -0 0 -0 -0 -1 -0 -0 -0 -0 -1 -1 -1 -0 -0 -0 -0 0 0 0 -0 0 -0 -0 -0 -0 -0 -0 -0 0 0 0 0 0 1 0 0 0 0 nan
nan -1 -1 -0 -0 -1 -1 -1 -1 -1 -1 -1 -1 -1 -1 -1 -1 -1 -1 -1 -1 -0 -0 -0 -1 -1 -1 -1 -1 -1 -1 -0 0 -0 -0 -0 -1 -0 -0 -1 -1 -1 -1 -0 -0 -0 -0 -0 -0 -0 -0 -0 -0 -0 -0 -0 -0 -0 -0 0 0 0 0 0 0 0 0 -0 nan
nan -0 -0 -1 -1 -0 -1 -1 -1 -1 -1 -1 -1 -1 -1 -1 -1 -1 -1 -0 -0 -0 -0 -0 -0 -1 -1 -0 -0 -1 -1 -1 -0 -0 0 -0 -1 -1 -0 -0 -1 -2 -2 -1 -0 -0 -1 -1 -1 -1 -1 -1 -1 -1 -0 -0 -0 -0 -0 -0 -0 -0 -0 -0 -0 -0 -0 -0 nan
nan -1 -1 -1 -1 -1 -1 -1 -1 -1 -1 -1 -1 -1 -1 -1 -1 -1 -1 -0 -0 -0 -0 -0 -0 -1 -1 -1 -0 -0 -1 -2 -2 -1 -1 -0 -0 -1 -1 -1 -1 -1 -1 -1 -0 -0 -0 -1 -2 -2 -2 -2 -2 -2 -1 -1 -0 -1 -1 -1 -1 -1 -1 -1 -1 -1 -1 -1 nan
nan -1 -1 -1 -1 -1 -1 -1 -1 -1 -1 -1 -1 -0 -0 -0 -1 -1 -1 -1 -0 -0 -0 -1 -0 -1 -1 -1 -1 -0 -0 -1 -2 -3 -2 -1 -1 -0 -1 -1 -1 -1 -1 -1 -0 0 0 0 -1 -2 -2 -2 -2 -2 -2 -1 -1 -1 -1 -1 -1 -1 -1 -1 -1 -1 -1 -1 nan
nan -1 -1 -1 -1 -1 -1 -1 -1 -1 -0 -0 -0 -0 -0 -0 -1 -1 -1 -1 -1 -1 -1 -1 -1 -1 -1 -2 -2 -1 -1 -1 -1 -2 -3 -3 -2 -1 -0 -0 -1 -1 -1 -1 -0 -0 0 0 1 0 -0 -0 -0 -1 -1 -1 -1 -1 -1 -1 -1 -1 -0 -0 -0 -0 -1 -1 nan
nan -1 -1 -1 -1 -0 -0 -0 -0 -0 -1 -0 -1 -1 -1 -1 -1 -1 -1 -1 -1 -1 -1 -1 -1 -1 -1 -2 -2 -1 -1 -1 -1 -1 -2 -2 -2 -2 -1 -0 -0 -1 -1 -1 -1 -0 -0 0 0 1 0 0 0 0 -0 -1 -1 -1 -1 -1 -1 -1 -1 -0 0 -0 -1 -2 nan
nan -1 -1 -1 -1 -1 -0 -0 -0 -0 -1 -1 -1 -1 -1 -1 -1 -1 -1 -2 -1 -2 -2 -1 -1 -1 -2 -2 -2 -1 -1 -1 -1 -1 -1 -1 -2 -2 -2 -1 -1 -1 -1 -1 -1 -0 -0 -0 -0 0 1 0 -0 -0 -0 -0 -0 -1 -1 -1 -1 -0 -0 -0 -0 -0 -1 -1 nan
nan -1 -1 -1 -1 -0 -0 -0 -0 -0 -1 -1 -1 -1 -1 -1 -1 -1 -1 -1 -1 -1 -2 -2 -2 -1 -1 -2 -2 -1 -1 -1 -1 -1 -1 -1 -1 -1 -1 -1 -1 -1 -1 -1 -1 -1 -0 -0 0 0 0 0 -0 -0 -1 -1 -1 -1 -1 -1 -0 -0 -0 0 -0 -1 -1 -1 nan
nan -1 -1 -1 -1 -1 -0 -0 -0 -1 -1 -1 -1 -1 -1 -1 -1 -1 -1 -1 -1 -1 -1 -1 -2 -1 -1 -1 -1 -2 -1 -1 -1 -1 -1 -2 -2 -1 -1 -1 -1 -1 -1 -1 -0 -0 -0 -0 -0 0 -0 -1 -1 -1 -1 -1 -1 -1 -1 -1 -0 -0 -0 -0 -1 -1 -1 -1 nan
nan -0 -1 -1 -1 -1 -1 -0 -1 -1 -1 -1 -1 -1 -1 -1 -1 -1 -1 -1 -1 -1 -0 -0 -1 -1 -1 -0 -0 -1 -1 -1 -1 -0 -1 -1 -2 -2 -1 -1 -1 -1 -1 -1 -0 -1 -0 -0 -0 -0 -0 -1 -1 -1 -0 -1 -1 -1 -1 -0 -0 0 -1 -1 -1 -1 -1 -1 nan
nan -0 -1 -1 -1 -1 -1 -1 -1 -1 -1 -1 -1 -1 -1 -1 -0 -0 -0 -1 -1 -1 -1 -0 -1 -1 -1 -1 -1 -1 -1 -1 -1 -0 -0 -0 -1 -2 -1 -1 -1 -1 -1 -1 -0 -0 -0 -0 -0 -0 -1 -1 -1 -1 -0 -1 -1 -0 -0 -0 -0 -0 -1 -1 -1 -1 -0 0 nan
nan -1 -1 -1 -1 -1 -1 -1 -1 -1 -1 -1 -0 -0 -1 -1 -1 -0 0 0 -1 -1 -1 -1 -1 -1 -2 -2 -2 -1 -1 -0 -1 -1 -0 0 -0 -1 -1 -1 -1 -1 -1 -1 -1 -1 -0 -0 -1 -1 -0 -1 -1 -1 -1 -1 -1 -1 -0 -0 -1 -1 -2 -2 -1 0 1 0 nan
nan -1 -1 -1 -1 -1 -1 -1 -1 -1 -1 -1 -0 0 0 -0 -1 -1 -0 0 0 -0 -0 -0 -0 -1 -1 -1 -1 -2 -1 -1 -0 -0 -0 -0 -0 -1 -1 -1 -1 -1 -1 -1 -1 -1 -1 -1 -1 -1 -1 -1 -1 -1 -1 -1 -0 -1 -1 -1 -1 -2 -2 -2 -1 -0 -0 -0 nan
nan -1 -1 -1 -1 -1 -1 -1 -1 -1 -1 -1 -1 -0 0 0 0 -1 -1 -1 -0 0 0 0 1 0 -0 -0 -0 -1 -1 -1 -1 -1 -0 -0 -1 -1 -1 -2 -2 -1 -1 -1 -1 -1 -1 -1 -1 -1 -1 -1 -1 -1 -1 -0 -0 -0 -1 -1 -1 -1 -1 -2 -2 -1 -1 -0 nan
nan -1 -1 -1 -1 -1 -1 -1 -1 -1 -1 -1 -1 -1 -1 -0 1 0 -0 -1 -1 -1 -0 0 0 0 0 -0 -0 0 -0 -1 -2 -2 -1 -1 -1 -1 -1 -1 -2 -1 -0 -0 -1 -1 -1 -1 -1 -1 -1 -1 -1 -1 -1 -0 -0 -1 -1 -0 -0 -0 -2 -2 -1 -1 -0 -0 nan
nan -0 -1 -1 -1 -1 -1 -1 -1 -1 -1 -1 -1 -1 -1 -1 -1 0 0 -1 -2 -2 -1 -0 0 0 0 0 -0 -0 -0 -0 -1 -2 -2 -1 -0 -0 -1 -1 -1 -1 -0 -0 -1 -1 -1 -1 -1 -1 -1 -1 -1 -1 -0 -0 -0 -0 -0 -0 -0 -0 -1 -1 -1 -0 -0 -0 nan
nan 0 0 -0 -1 -1 -1 -1 -1 -1 -2 -1 -1 -1 -1 -1 -2 -1 0 0 -1 -3 -2 -1 0 0 0 -0 -1 -1 -1 -0 0 -0 -1 -1 -1 -0 -0 -1 -1 -1 -1 -0 -0 -1 -1 -1 -1 -1 -0 -0 -0 -0 -0 -0 -0 -0 -0 -0 -0 -0 -1 -1 -1 -0 -0 -0 nan
nan 0 0 0 -1 -1 -1 -1 -1 -1 -2 -2 -2 -1 -1 -1 -2 -1 -0 1 0 -1 -2 -2 -1 -1 -0 -0 -1 -2 -2 -1 -0 -0 -0 -0 -1 -0 -0 -1 -0 -0 -0 -0 -0 -0 -1 -1 -1 -1 -0 -0 -0 -0 -0 -0 -0 -0 -0 -0 -0 -1 -1 -1 -1 -1 -0 -0 nan
nan 1 1 1 -0 -1 -1 -1 -0 -0 -1 -1 -2 -2 -1 -1 -1 -1 -0 1 1 0 -1 -2 -2 -2 -1 -0 -0 -1 -1 -1 -0 -0 -0 -0 -0 -1 -0 -0 -0 -0 -0 -0 -0 -0 -0 -0 -0 -0 -0 -0 -0 -0 -0 -0 -0 -0 -0 -0 -0 -1 -1 -1 -1 -0 -0 -0 nan
nan nan nan nan nan nan nan nan nan nan nan nan nan nan nan nan nan nan nan nan nan nan nan nan nan nan nan nan nan nan nan nan nan nan nan nan nan nan nan nan nan nan nan nan nan nan nan nan nan nan nan nan nan nan nan nan nan nan nan nan nan nan nan nan nan nan nan nan nan
Wind_Speed
32 32 32 31 31 30 30 29 28 28 27 28 28 29 29 30 30 30 30 29 29 29 29 29 29 28 26 25 24 25 25 26 27 28 28 28 28 27 27 26 26 26 26 26 26 26 26 26 26 27 28 29 29 29 30 30 30 30 31 32 32 33 34 34 35 35 35 35 36
32 32 31 30 30 29 28 27 26 26 26 27 27 28 29 30 30 31 31 31 31 31 31 30 30 29 27 26 25 24 25 26 27 28 28 28 28 27 27 27 27 27 26 26 26 26 26 26 27 28 29 30 31 32 32 32 32 33 33 34 35 35 36 37 37 37 37 37 37
32 31 30 29 28 27 26 26 26 25 25 26 26 27 28 29 30 31 31 31 31 31 31 31 31 30 29 27 26 25 25 26 27 28 28 28 28 28 28 27 27 27 27 27 26 26 27 27 28 30 31 33 33 34 35 35 35 36 37 37 38 38 39 40 40 40 40 40 40
30 29 28 27 26 26 26 26 25 25 25 25 26 26 27 28 29 30 31 31 31 32 32 32 31 31 30 29 28 27 26 26 27 28 29 29 29 29 28 28 28 28 27 27 27 28 28 29 31 33 34 36 37 38 38 38 38 39 40 40 41 41 42 43 43 43 43 43 44
28 27 26 26 26 25 25 25 25 25 25 25 26 26 26 27 28 29 29 30 31 31 31 31 32 32 31 30 30 29 28 28 28 29 30 30 30 30 30 30 29 29 29 29 30 30 31 32 34 36 38 39 40 41 42 42 42 43 44 44 44 45 45 46 46 46 46 47 46
27 26 26 26 25 26 25 25 25 25 25 25 25 25 25 26 26 27 27 28 29 29 30 30 31 31 31 31 31 31 30 30 30 30 31 31 31 31 31 31 31 31 31 32 33 34 35 36 38 40 41 43 44 45 45 45 46 47 48 48 48 49 49 49 49 49 49 49 49
26 26 26 26 26 26 26 26 25 25 25 25 24 24 23 24 24 24 25 25 26 26 27 28 29 29 30 31 31 32 32 32 32 32 33 33 33 33 33 33 34 34 35 36 36 38 39 40 42 44 45 46 47 48 49 49 49 50 51 51 51 51 51 52 51 51 51 50 50
26 26 26 26 26 26 26 25 25 25 24 23 23 22 22 22 22 22 23 23 24 25 25 26 27 27 28 29 30 31 31 32 33 33 34 34 35 36 36 36 37 38 39 40 41 42 43 44 45 47 48 49 51 51 52 52 52 52 52 52 52 52 52 52 52 51 51 51 51
26 26 26 26 26 25 25 25 24 24 23 23 22 22 22 22 22 23 24 24 25 25 26 26 27 27 28 29 29 30 31 31 32 33 34 34 36 37 37 38 39 41 42 43 43 45 46 47 48 49 50 51 52 53 53 52 52 52 51 51 51 51 51 51 51 51 51 51 51
26 26 26 26 25 25 25 25 24 24 23 23 22 22 23 23 24 25 27 27 28 28 29 29 30 30 30 31 31 31 32 32 32 33 33 34 35 36 37 38 40 41 42 43 44 46 47 48 49 50 51 52 52 52 52 51 50 50 50 50 50 49 49 49 50 50 51 51 52
26 26 26 26 26 26 25 25 25 25 25 25 25 25 25 26 27 29 30 31 32 32 32 33 33 34 34 35 35 35 35 35 35 35 35 35 35 36 37 38 39 40 42 43 44 46 47 48 50 50 51 51 51 50 50 50 49 48 48 48 48 48 48 48 49 49 50 51 52
27 27 26 26 26 26 27 27 27 27 27 27 28 28 29 30 31 32 33 34 35 35 35 36 36 37 38 38 39 39 39 39 39 39 38 38 38 38 38 38 39 40 42 43 44 45 47 48 49 49 50 50 49 49 48 48 47 46 46 46 46 46 46 47 48 48 49 49 50
28 27 27 27 27 28 28 28 29 29 29 30 30 31 31 32 33 34 35 36 37 38 38 38 39 40 41 42 42 42 42 42 42 42 41 41 41 40 40 40 40 41 42 43 44 45 46 47 48 48 48 49 48 48 47 46 45 45 44 44 44 45 45 46 46 46 46 47 48
29 29 29 29 29 29 30 30 31 31 31 32 32 33 34 34 35 36 37 38 39 40 41 42 42 43 44 44 45 45 45 44 44 44 44 43 43 42 42 42 42 42 43 43 44 45 45 46 47 47 47 47 48 47 47 46 45 45 44 44 44 44 44 44 44 43 43 44 46
30 30 30 30 31 31 31 32 32 33 33 34 34 35 36 37 37 38 39 41 42 43 44 44 45 46 46 46 46 46 46 45 45 45 45 44 44 43 43 43 43 43 43 43 43 43 44 44 44 45 45 45 46 46 46 46 45 45 45 44 44 44 44 44 43 42 41 42 42
31 31 31 32 32 32 33 33 34 35 35 35 36 37 38 39 40 41 42 43 44 45 46 47 47 48 48 47 47 46 46 45 45 44 44 44 44 43 43 43 43 42 42 42 42 42 42 42 42 42 42 43 43 44 44 44 44 44 44 44 44 44 44 43 42 40 40 39 39
33 33 33 33 34 34 34 35 36 36 37 37 38 39 40 41 42 43 44 45 46 47 48 48 48 48 47 47 46 45 44 44 44 43 43 43 43 42 42 42 42 41 41 41 41 41 41 40 40 40 40 40 41 41 42 42 42 43 43 43 43 43 43 42 41 40 39 38 38
34 34 34 35 35 36 36 37 37 38 38 39 40 41 41 42 43 44 45 46 47 47 48 48 47 46 46 45 44 43 42 42 42 42 42 42 41 41 41 41 41 41 40 40 40 40 40 40 39 39 39 39 39 40 40 40 41 41 41 42 42 42 42 42 41 40 39 39 39
35 36 36 36 37 37 38 38 39 39 40 41 42 42 43 44 45 45 46 46 46 46 46 46 45 44 43 43 42 42 41 41 41 41 41 41 41 41 41 41 41 40 40 40 40 40 40 40 39 39 39 38 39 39 39 39 39 40 40 40 41 41 41 41 41 40 39 39 39
37 37 37 38 38 39 39 40 40 41 42 42 43 44 44 44 45 45 45 45 44 44 43 43 43 42 42 41 41 41 41 41 41 42 42 41 41 41 41 41 41 41 40 40 40 40 40 40 39 39 39 39 38 38 38 38 39 39 39 39 39 39 39 39 39 38 38 38 38
38 39 39 39 40 40 41 41 42 42 43 43 44 44 44 44 44 43 43 43 42 42 41 41 41 41 42 42 42 42 42 42 42 42 42 42 42 42 41 41 41 41 41 41 40 40 40 40 39 39 39 38 38 38 38 38 38 38 38 37 37 37 37 36 36 36 35 35 35
40 40 40 41 41 42 42 43 43 43 43 43 43 43 43 43 42 42 41 41 41 41 41 41 41 42 42 43 43 43 43 43 43 43 43 43 43 43 42 41 41 41 41 41 40 40 40 39 39 39 38 38 38 38 37 37 37 36 36 36 36 35 35 34 33 33 33 33 32
41 42 42 42 42 43 43 43 43 43 43 43 42 42 41 41 41 41 40 40 40 41 41 42 42 43 43 43 44 44 44 45 44 44 44 43 43 43 42 41 41 41 40 40 40 39 39 39 38 38 38 37 37 37 37 36 36 36 35 35 35 34 33 33 32 32 32 31 31
42 42 43 43 43 43 43 43 42 42 42 41 41 41 40 40 40 41 41 41 41 41 42 43 43 44 44 44 45 45 45 45 45 45 44 44 43 42 42 41 40 40 40 39 38 38 37 37 37 37 37 37 37 37 37 36 36 36 36 35 35 35 34 33 33 32 32 32 31
42 43 42 42 42 42 42 42 41 41 41 40 40 40 40 40 41 41 42 42 42 43 44 44 44 45 45 45 45 45 45 45 45 44 44 43 42 41 40 40 39 39 39 38 37 36 35 35 34 34 35 35 35 35 36 36 36 36 37 37 37 36 36 36 35 34 33 32 31
42 42 42 42 41 41 41 40 40 40 40 40 40 40 41 41 42 42 43 44 44 44 45 45 45 45 45 45 46 45 45 44 43 43 42 42 42 41 40 39 38 38 38 37 36 35 34 33 32 32 32 32 33 34 35 36 36 36 37 37 38 38 38 38 38 36 35 33 32
41 41 41 41 40 40 40 40 40 40 40 40 41 41 42 43 43 44 45 45 45 46 46 46 46 45 45 45 45 45 44 43 42 41 41 40 40 40 39 38 38 37 37 36 35 34 34 33 32 31 30 31 32 33 34 35 35 35 36 36 37 38 38 39 38 37 36 35 34
40 40 40 40 40 40 40 40 40 40 41 41 42 43 43 44 45 45 46 46 46 46 46 46 45 45 45 45 44 44 43 42 41 40 40 39 39 39 38 38 37 36 36 35 34 34 33 32 31 30 30 30 31 32 33 34 34 34 35 35 36 37 37 36 36 36 37 37 38
39 39 39 39 39 40 40 40 40 41 42 43 43 44 45 45 46 46 46 46 46 46 45 45 45 45 44 43 43 43 42 41 40 39 39 39 38 38 38 37 37 36 35 34 33 32 31 30 29 29 28 29 29 31 32 33 34 34 35 36 37 37 37 36 36 37 38 40 41
38 38 39 39 40 40 40 41 42 42 43 44 45 46 46 47 47 47 46 46 45 45 44 44 44 44 43 43 42 42 41 41 40 39 38 38 38 38 37 37 36 35 34 33 32 31 29 28 28 28 28 28 29 30 31 32 33 34 35 36 36 36 36 36 36 37 39 40 39
38 38 39 40 40 41 41 42 43 44 45 45 46 47 47 47 47 46 46 45 45 44 44 43 43 43 43 42 42 41 41 41 40 39 38 38 38 37 37 36 35 34 33 31 30 29 28 27 28 28 28 28 29 30 31 31 32 33 34 35 35 35 34 34 36 38 39 37 33
38 38 39 40 41 42 43 43 44 45 46 46 47 47 47 47 46 46 45 44 44 44 44 43 43 43 43 42 42 41 41 40 39 38 38 37 37 36 36 35 34 32 31 30 29 28 28 28 29 29 29 29 29 30 31 32 33 34 35 35 35 35 35 36 36 36 35 33 32
38 39 40 41 42 43 44 44 45 46 47 47 47 47 47 46 46 45 44 44 43 43 43 43 43 43 42 42 42 41 41 40 39 38 37 36 35 35 34 34 33 31 30 30 29 29 29 30 30 30 30 30 30 31 32 33 34 35 36 36 36 36 36 36 34 32 32 33 34
38 40 41 42 43 44 45 45 46 46 47 47 47 47 46 45 45 45 44 44 43 43 43 43 42 42 42 41 41 40 40 39 38 37 36 35 34 34 34 33 32 31 31 30 30 30 30 31 31 31 31 31 31 32 33 34 35 35 35 35 35 35 35 34 33 33 33 34 34
39 40 42 43 44 44 45 46 46 47 47 47 47 46 45 45 44 44 44 44 44 43 43 43 42 42 41 41 40 39 39 38 37 36 35 34 34 34 34 34 33 32 32 32 31 31 31 31 31 31 31 31 32 33 33 34 34 34 34 34 34 34 34 34 33 33 32 31 31
40 41 42 43 44 45 45 46 46 46 46 46 46 45 45 44 44 44 44 44 44 44 44 43 42 42 41 40 39 38 38 37 37 36 35 35 34 34 35 35 34 34 33 32 32 32 32 32 32 31 31 32 32 32 32 32 32 32 32 31 31 31 30 29 28 28 28 29 30
40 41 43 44 44 45 45 45 45 45 45 45 45 44 44 44 44 44 44 44 44 44 44 43 42 41 41 40 39 38 37 37 36 36 36 35 34 34 35 35 35 34 34 33 32 32 32 32 31 31 30 30 30 30 31 31 30 30 30 29 29 28 27 26 27 28 29 30 31
41 42 43 43 44 44 44 44 44 44 44 44 44 44 44 44 44 44 44 43 43 43 43 43 42 41 40 39 39 38 38 36 36 35 35 35 34 34 34 35 35 35 34 33 33 32 32 31 30 29 28 28 29 29 30 30 30 29 29 29 29 29 29 29 30 31 32 32 32
42 42 43 43 43 43 43 43 43 43 43 43 43 43 44 44 44 44 43 42 42 41 42 42 41 41 40 39 38 38 37 36 35 34 34 34 33 33 34 34 35 36 35 34 33 32 31 30 29 27 27 28 28 29 29 30 30 30 30 31 32 33 33 33 33 32 31 32 32
42 42 42 42 42 42 42 42 42 42 42 42 43 43 44 44 44 43 43 42 41 40 40 41 41 40 39 38 37 37 37 36 35 33 33 33 34 33 33 34 35 36 35 34 33 31 29 28 27 27 27 28 29 29 30 30 31 31 32 33 34 35 35 34 32 30 30 31 32
42 42 42 41 41 41 41 41 41 41 41 42 42 43 43 43 43 43 42 41 40 40 40 40 39 39 38 36 36 36 36 35 35 34 33 34 34 34 34 35 35 35 35 33 31 29 27 26 26 27 27 28 29 29 30 30 30 30 31 31 32 34 34 33 30 29 30 31 32
Wind_Direction
320 319 318 317 316 315 314 312 311 309 308 306 305 304 303 302 301 301 302 303 303 304 305 306 306 306 305 304 304 305 305 305 303 300 297 294 291 288 286 283 281 279 278 277 277 278 279 280 282 283 284 285 285 285 285 285 285 286 286 285 286 286 286 286 285 285 286 286 285
319 318 317 316 315 314 313 312 311 309 307 306 304 304 303 302 302 302 302 303 303 303 304 305 305 305 303 302 301 302 303 303 302 300 296 293 290 287 285 283 281 279 279 279 279 279 280 282 283 284 285 285 285 286 285 285 285 286 286 285 285 285 285 285 285 285 285 285 285
319 319 318 318 317 316 315 314 313 311 309 307 305 304 303 302 302 301 301 302 302 303 303 303 304 303 302 301 300 299 299 300 300 299 296 292 290 287 285 283 281 280 280 280 280 280 281 283 284 285 285 286 286 286 286 286 286 286 286 286 285 285 284 284 284 285 285 285 284
321 321 321 320 320 319 318 317 316 314 312 310 308 306 303 302 301 301 300 300 301 301 302 302 302 302 302 301 299 298 297 297 297 296 294 292 289 287 285 283 282 281 280 280 280 281 282 283 284 285 286 286 287 287 287 287 288 288 287 287 286 285 285 285 285 285 285 284 284
322 322 322 322 322 322 321 320 319 317 315 313 311 308 305 303 302 301 301 301 301 302 302 302 302 302 301 301 299 298 296 295 295 294 292 291 288 286 285 283 282 281 280 280 280 281 282 284 285 286 286 287 287 287 287 288 288 288 288 287 286 286 285 285 285 285 285 284 284
323 323 323 323 323 323 323 322 321 319 317 315 313 310 308 307 305 305 304 304 305 305 305 304 304 304 303 302 300 299 297 295 294 293 291 290 288 286 284 282 281 280 280 280 281 281 283 284 285 286 286 286 287 287 287 287 287 287 287 286 286 285 285 285 285 284 284 283 282
324 325 325 325 325 324 324 322 321 320 319 317 315 313 312 311 311 311 310 310 310 310 310 309 309 308 306 305 303 301 299 297 295 293 291 289 288 286 284 282 281 281 280 281 282 282 283 284 285 285 285 285 285 285 285 285 285 284 284 284 284 284 284 283 283 283 282 281 281
325 326 326 326 325 324 324 322 321 320 318 317 316 315 315 315 315 315 315 315 315 315 315 315 314 312 310 308 306 304 302 299 297 294 292 290 288 286 285 283 282 282 282 282 282 283 283 283 283 283 283 283 283 283 283 283 283 282 282 282 282 281 281 280 280 280 280 279 279
326 326 326 326 325 324 322 321 319 318 316 315 315 315 315 315 316 316 316 317 316 316 316 316 315 314 313 311 309 307 305 302 299 297 294 292 289 288 286 285 283 283 283 282 282 282 282 281 281 281 281 281 281 281 281 282 282 282 281 281 280 280 279 278 278 277 277 277 276
327 327 326 325 323 322 320 319 317 315 314 312 312 312 312 312 313 313 314 314 313 313 313 313 313 312 311 311 310 309 307 305 302 299 296 294 291 289 288 286 285 284 283 282 282 281 281 280 280 280 280 280 280 281 281 282 282 282 282 282 281 280 279 278 277 276 275 275 274
327 326 325 323 321 319 318 316 314 312 311 310 309 309 309 309 309 310 310 310 310 310 310 310 310 310 310 309 309 309 308 306 304 302 299 296 294 291 289 287 285 284 283 282 281 281 280 280 280 280 280 281 281 281 282 282 283 283 283 283 282 282 280 279 277 276 274 274 273
325 324 322 320 318 317 315 314 312 311 310 309 308 307 307 307 308 308 308 308 308 308 308 308 309 309 309 309 309 308 307 307 305 303 301 299 296 294 291 288 286 285 283 282 281 281 280 280 281 281 281 281 282 283 283 284 284 285 284 284 284 283 281 280 279 277 275 274 274
323 322 320 318 316 315 314 313 312 311 310 309 308 308 307 307 307 307 307 307 307 307 307 308 308 308 309 309 309 308 308 307 306 304 302 300 298 296 293 291 288 286 284 283 282 281 281 281 281 282 282 283 283 283 284 285 285 285 285 285 284 283 282 281 280 279 277 276 274
321 320 318 317 315 314 313 312 311 310 309 309 308 307 307 307 307 307 307 307 307 307 307 308 308 308 309 309 309 309 308 307 306 304 302 301 299 297 295 293 291 288 286 285 284 283 283 283 283 283 284 284 284 284 285 286 286 285 285 285 284 283 283 282 282 281 279 277 276
319 317 316 315 314 312 311 311 310 309 308 308 307 306 306 306 305 305 305 305 306 306 307 307 308 308 309 309 309 308 307 306 305 303 302 300 299 297 296 294 293 291 290 288 288 287 286 286 286 286 286 286 286 286 286 286 285 285 285 284 284 283 283 282 282 281 279 278 276
316 315 314 313 312 311 310 309 308 307 306 306 305 305 304 304 304 304 304 305 305 306 307 307 308 308 308 308 308 307 306 305 304 302 301 300 299 298 297 295 295 294 293 293 292 291 290 290 290 289 289 289 288 287 287 286 286 285 284 283 283 282 281 281 280 280 279 278 277
315 314 312 311 310 309 308 307 306 305 305 304 304 303 303 303 304 304 304 305 306 306 307 307 308 308 308 308 307 306 305 304 303 302 301 300 300 299 298 297 297 296 296 296 295 294 294 293 292 292 291 291 290 289 288 287 286 285 284 283 282 281 280 279 278 278 278 277 276
315 313 312 311 310 309 308 307 306 305 304 304 304 304 304 304 305 305 305 306 307 307 308 308 308 308 308 308 307 306 305 304 304 303 302 302 301 301 300 300 299 299 298 298 297 296 295 295 294 294 293 292 291 290 289 288 287 286 284 283 282 281 279 278 277 276 276 276 276
315 314 313 312 311 310 309 308 307 306 306 306 306 306 306 306 306 307 307 308 308 309 309 309 309 309 309 308 308 307 307 306 305 305 304 304 304 303 303 302 302 301 300 299 298 298 297 296 295 295 294 293 292 291 290 289 288 286 285 284 283 281 280 279 277 276 276 276 276
316 315 314 313 313 312 311 310 310 309 309 308 308 308 308 308 309 309 309 310 310 311 311 311 311 311 310 310 309 309 308 308 308 307 307 306 306 305 305 304 303 303 301 301 300 299 298 297 297 296 295 294 293 291 290 289 288 287 286 285 284 282 281 280 279 278 277 277 277
317 316 315 314 314 313 312 312 311 311 311 311 311 311 311 311 311 311 312 312 313 313 313 313 313 313 312 312 311 311 310 310 309 309 309 308 308 307 306 306 305 304 303 302 301 300 299 299 298 297 296 295 293 292 291 290 289 288 287 285 284 283 282 282 281 280 280 279 279
317 316 315 315 314 314 313 313 313 312 312 312 312 313 313 313 314 314 314 315 315 315 315 315 315 314 314 314 313 312 312 311 310 310 310 309 309 308 308 307 306 305 304 303 302 302 301 300 299 298 297 296 294 293 292 291 290 289 288 287 286 285 285 284 284 283 283 282 282
317 316 315 315 315 314 314 314 314 314 314 314 315 315 315 316 316 316 317 317 317 317 317 316 316 315 315 314 314 313 313 312 311 311 311 310 310 309 309 308 307 306 305 304 303 303 302 301 300 299 298 297 296 295 294 293 292 291 290 289 289 289 288 288 287 286 286 285 285
316 316 315 315 315 315 315 315 315 315 316 316 317 317 318 318 318 318 318 318 318 318 318 317 317 316 315 315 314 314 313 313 313 312 312 311 311 310 310 309 308 306 305 304 304 304 303 302 302 301 300 300 299 298 297 296 295 294 293 293 293 293 292 292 291 290 289 288 287
316 316 316 316 316 316 316 317 317 317 318 318 319 319 319 320 320 320 320 319 319 319 318 318 317 316 316 315 314 314 314 314 314 313 313 312 311 311 310 309 307 306 305 305 304 304 303 303 302 302 302 301 299 298 298 297 296 295 295 294 294 294 294 293 292 292 290 289 288
316 316 316 316 316 317 317 318 319 319 320 320 320 320 320 321 321 320 320 320 320 320 319 318 318 317 316 315 315 315 315 314 314 314 313 312 311 310 309 308 307 306 305 305 305 304 304 303 302 300 299 297 295 294 293 292 292 292 292 292 292 291 291 292 292 291 291 290 290
317 317 317 317 317 318 319 319 320 320 321 321 321 321 321 321 321 321 321 321 320 320 319 318 318 317 316 316 315 315 315 315 315 314 313 312 312 311 310 308 307 306 306 306 305 305 304 303 301 298 295 293 291 290 289 288 288 288 288 288 289 289 289 290 290 291 291 291 292
317 317 317 318 318 319 320 320 321 321 321 321 321 321 321 321 321 321 321 321 320 320 319 319 318 317 317 316 316 316 316 315 315 315 314 313 312 311 310 309 308 307 307 307 306 305 304 303 301 298 295 292 291 290 289 289 289 288 288 288 288 289 288 287 287 288 290 292 293
318 318 318 319 319 320 321 321 322 322 322 322 322 322 322 322 322 322 321 321 321 320 319 319 318 318 317 317 317 317 317 316 316 316 315 314 313 312 311 310 309 308 307 307 307 306 304 303 302 299 296 294 292 291 290 290 290 289 289 289 289 289 289 288 288 289 290 290 290
318 318 319 319 320 321 321 322 322 322 322 322 322 322 322 322 322 322 321 321 321 320 320 319 319 318 318 318 318 318 318 318 318 317 317 315 314 313 312 310 309 309 308 308 308 307 307 306 305 302 298 296 294 292 291 290 290 290 289 289 289 288 288 288 288 289 288 287 286
319 319 319 320 321 321 322 322 322 322 322 322 322 322 322 322 322 322 322 321 321 321 320 320 320 319 319 319 320 320 319 319 319 318 317 316 315 313 312 311 310 309 310 310 311 311 311 310 307 303 300 298 295 293 292 291 291 290 289 289 289 288 288 289 289 289 287 284 283
319 319 320 321 321 322 322 322 322 322 322 322 322 322 322 322 322 322 322 322 322 321 321 321 321 321 321 321 321 320 320 320 319 318 317 316 315 313 312 311 311 311 313 314 315 315 314 311 306 303 301 299 297 295 294 293 292 291 290 290 290 291 291 291 290 288 285 283 283
319 320 320 321 321 321 322 322 322 322 321 321 321 322 322 322 322 322 323 323 323 323 322 322 322 322 322 322 321 321 320 320 319 318 317 316 315 314 313 313 313 315 317 318 318 317 313 309 306 303 302 300 299 297 295 294 293 292 292 292 293 293 293 292 289 286 283 283 282
320 320 321 321 321 321 321 321 321 321 321 321 321 322 322 323 323 323 323 324 324 323 323 323 323 322 322 322 322 321 320 320 319 318 318 318 317 317 316 315 316 318 320 320 318 315 311 307 305 304 303 301 299 297 295 294 293 293 293 293 293 293 292 289 286 283 281 281 281
320 321 321 320 320 320 320 320 320 321 321 321 321 322 323 323 323 324 324 324 324 324 323 323 323 323 322 322 321 321 320 320 320 320 320 320 320 319 318 317 318 319 320 318 315 312 309 307 306 304 303 301 298 296 295 294 294 293 292 292 291 289 286 283 281 280 279 280 282
321 320 320 320 320 320 320 320 320 320 321 321 322 323 323 324 324 324 325 325 324 324 323 323 322 322 322 321 321 321 321 321 321 322 322 323 322 319 318 317 317 317 317 314 312 310 308 307 305 304 302 300 298 297 296 295 295 295 294 293 292 289 286 284 282 282 284 286 288
320 320 319 319 319 319 319 319 320 320 321 322 323 323 324 324 324 325 325 325 325 324 323 322 322 321 321 321 321 321 322 323 323 323 322 322 321 318 316 315 315 314 313 311 310 308 307 306 305 304 303 302 301 300 299 299 299 298 298 298 297 294 292 290 290 291 292 293 294
320 319 318 318 318 318 319 319 320 321 322 323 323 324 325 325 325 325 325 325 324 323 322 321 321 321 322 322 323 323 323 324 323 321 320 319 317 316 314 312 312 312 311 309 309 308 307 306 306 306 306 306 305 303 302 302 301 301 301 301 301 299 298 298 298 297 297 296 296
319 318 318 318 318 318 319 320 320 322 323 323 324 325 325 325 325 325 325 324 323 322 321 321 321 322 323 324 323 322 322 321 320 318 316 315 314 314 312 311 311 311 310 309 308 308 308 308 309 309 309 309 307 306 305 303 302 302 302 303 303 303 303 303 301 297 294 295 295
318 318 318 318 318 319 320 320 321 322 324 324 325 325 325 325 324 324 324 323 322 321 321 321 321 322 324 324 322 320 318 318 317 315 313 313 314 313 312 311 311 311 310 310 311 312 313 313 313 312 311 310 309 307 305 303 302 301 301 302 303 304 304 303 299 294 292 294 296
318 318 318 319 319 320 321 321 322 323 324 325 325 325 325 324 324 323 323 322 322 322 322 322 322 322 322 320 318 316 315 315 315 314 313 314 315 314 313 312 312 311 311 312 314 316 317 317 316 313 311 310 309 307 305 303 301 300 300 301 302 304 304 302 297 294 294 296 297
Height
1532 1531 1529 1528 1527 1525 1524 1523 1522 1521 1520 1518 1517 1516 1515 1514 1513 1512 1511 1510 1508 1507 1506 1505 1504 1503 1503 1502 1501 1500 1499 1498 1497 1497 1496 1495 1494 1494 1493 1493 1492 1491 1490 1490 1489 1488 1488 1487 1486 1484 1483 1483 1482 1481 1481 1481 1480 1479 1478 1477 1476 1475 1474 1473 1473 1472 1471 1471 1470
1530 1529 1528 1526 1525 1523 1522 1521 1520 1519 1518 1517 1516 1514 1513 1512 1511 1510 1509 1508 1507 1506 1505 1503 1503 1502 1501 1500 1499 1498 1497 1496 1495 1495 1494 1493 1493 1492 1491 1491 1490 1489 1488 1488 1487 1487 1486 1485 1484 1482 1481 1480 1479 1478 1478 1478 1478 1477 1475 1474 1473 1473 1472 1470 1469 1469 1468 1468 1467
1528 1527 1525 1524 1523 1521 1520 1519 1518 1517 1516 1515 1514 1513 1512 1511 1510 1508 1508 1507 1506 1505 1503 1502 1501 1500 1499 1498 1498 1497 1495 1494 1493 1493 1492 1492 1491 1490 1490 1489 1488 1487 1487 1486 1485 1484 1484 1483 1481 1480 1478 1477 1476 1476 1475 1474 1474 1473 1472 1471 1470 1470 1468 1467 1466 1466 1465 1464 1463
1526 1525 1523 1522 1521 1520 1518 1517 1516 1515 1514 1513 1512 1511 1510 1509 1508 1507 1506 1505 1504 1503 1502 1501 1500 1498 1498 1497 1496 1495 1494 1493 1492 1491 1490 1489 1489 1488 1488 1487 1486 1486 1485 1484 1483 1483 1482 1480 1479 1477 1476 1474 1473 1473 1472 1472 1471 1470 1469 1468 1467 1466 1465 1463 1463 1462 1462 1460 1459
1524 1523 1522 1521 1519 1518 1517 1516 1515 1513 1513 1512 1511 1509 1508 1508 1506 1505 1504 1503 1502 1501 1500 1499 1498 1497 1496 1495 1494 1493 1492 1491 1490 1489 1488 1488 1487 1487 1486 1485 1484 1483 1483 1482 1481 1480 1479 1478 1476 1474 1473 1472 1470 1469 1469 1469 1468 1467 1465 1464 1463 1462 1461 1460 1459 1458 1458 1456 1455
1523 1521 1520 1519 1518 1517 1516 1514 1513 1512 1511 1510 1509 1508 1507 1506 1504 1503 1502 1501 1500 1499 1498 1498 1496 1495 1494 1493 1492 1491 1490 1489 1488 1488 1487 1486 1485 1484 1484 1483 1482 1481 1480 1479 1478 1478 1477 1475 1473 1472 1470 1469 1468 1466 1466 1466 1465 1463 1462 1460 1459 1458 1457 1456 1455 1454 1454 1452 1451
1521 1520 1519 1518 1516 1515 1514 1513 1512 1511 1509 1508 1507 1506 1505 1504 1503 1502 1501 1500 1498 1498 1497 1496 1494 1493 1492 1491 1490 1489 1488 1487 1487 1486 1485 1483 1483 1482 1481 1481 1480 1479 1478 1477 1476 1475 1474 1473 1471 1469 1467 1466 1464 1463 1462 1462 1461 1459 1458 1456 1455 1454 1453 1452 1451 1450 1449 1448 1447
1519 1518 1517 1516 1515 1514 1513 1512 1510 1509 1508 1507 1506 1505 1503 1503 1501 1500 1499 1498 1497 1496 1495 1494 1493 1492 1490 1489 1488 1487 1486 1485 1484 1483 1482 1481 1480 1479 1479 1478 1477 1476 1475 1474 1473 1472 1471 1469 1468 1465 1463 1462 1461 1459 1458 1458 1457 1455 1453 1452 1451 1450 1449 1448 1446 1445 1444 1443 1443
1518 1517 1516 1514 1513 1512 1511 1510 1509 1508 1507 1505 1504 1503 1502 1501 1500 1498 1497 1496 1495 1494 1493 1492 1491 1490 1489 1488 1486 1485 1484 1483 1482 1481 1480 1479 1478 1477 1476 1475 1474 1473 1472 1471 1470 1469 1467 1465 1463 1462 1460 1458 1457 1455 1454 1454 1452 1450 1449 1448 1447 1446 1444 1443 1442 1441 1440 1439 1438
1516 1515 1514 1513 1512 1511 1510 1508 1508 1506 1505 1504 1503 1502 1501 1499 1498 1497 1496 1494 1493 1492 1491 1490 1489 1488 1486 1485 1484 1483 1482 1480 1479 1478 1477 1476 1475 1473 1472 1471 1470 1469 1468 1467 1466 1465 1463 1461 1459 1458 1456 1455 1453 1452 1450 1449 1448 1446 1444 1443 1442 1441 1440 1439 1438 1438 1436 1435 1434
1514 1513 1513 1511 1510 1509 1508 1507 1506 1505 1503 1502 1501 1500 1499 1498 1497 1495 1494 1492 1491 1490 1489 1488 1486 1485 1483 1483 1481 1480 1479 1478 1476 1475 1473 1473 1471 1470 1469 1468 1467 1466 1464 1463 1462 1461 1459 1457 1455 1453 1452 1451 1449 1448 1446 1445 1444 1442 1441 1439 1438 1437 1436 1435 1434 1434 1433 1431 1431
1513 1512 1511 1510 1508 1508 1506 1505 1504 1503 1502 1501 1499 1498 1497 1496 1494 1493 1491 1490 1488 1487 1486 1485 1483 1482 1480 1479 1478 1477 1476 1474 1473 1471 1470 1469 1468 1467 1466 1464 1463 1462 1461 1459 1458 1457 1455 1453 1451 1449 1448 1447 1445 1444 1442 1441 1440 1438 1437 1435 1434 1433 1432 1430 1430 1430 1429 1428 1427
1511 1510 1509 1508 1507 1506 1504 1503 1502 1501 1500 1498 1497 1496 1495 1493 1492 1491 1489 1487 1486 1484 1483 1482 1481 1479 1478 1476 1475 1473 1472 1471 1469 1468 1466 1465 1464 1463 1462 1460 1459 1458 1457 1455 1454 1452 1450 1448 1447 1445 1444 1442 1441 1440 1438 1437 1436 1434 1433 1431 1430 1429 1428 1427 1426 1426 1425 1424 1423
1510 1508 1507 1506 1505 1503 1502 1501 1500 1498 1497 1496 1495 1493 1492 1491 1489 1488 1486 1484 1483 1481 1480 1478 1477 1476 1474 1473 1471 1470 1468 1467 1465 1464 1462 1461 1460 1458 1457 1456 1455 1453 1452 1451 1449 1448 1446 1444 1443 1441 1440 1438 1437 1436 1434 1433 1432 1430 1428 1427 1426 1425 1423 1423 1422 1422 1421 1420 1419
1508 1507 1505 1504 1503 1501 1500 1499 1497 1496 1495 1493 1492 1491 1489 1488 1487 1485 1483 1482 1480 1478 1477 1476 1474 1473 1471 1470 1468 1466 1465 1463 1462 1460 1458 1457 1456 1454 1453 1451 1450 1449 1448 1446 1445 1443 1442 1440 1439 1437 1436 1434 1432 1431 1430 1429 1428 1426 1425 1423 1422 1421 1420 1419 1418 1418 1417 1416 1415
1506 1504 1503 1502 1500 1499 1498 1496 1495 1493 1492 1491 1490 1488 1487 1485 1484 1483 1481 1479 1477 1476 1474 1473 1471 1469 1468 1467 1465 1463 1461 1459 1458 1456 1454 1453 1451 1450 1448 1447 1446 1444 1443 1442 1440 1439 1437 1436 1435 1433 1432 1430 1428 1427 1426 1425 1423 1422 1421 1419 1418 1417 1416 1415 1415 1414 1413 1413 1412
1503 1502 1501 1500 1498 1497 1495 1494 1493 1491 1490 1488 1487 1486 1484 1483 1481 1480 1478 1477 1475 1473 1471 1470 1468 1467 1465 1463 1462 1460 1458 1456 1454 1453 1451 1449 1448 1446 1444 1443 1442 1440 1439 1438 1436 1434 1433 1432 1431 1429 1428 1426 1424 1423 1422 1420 1419 1418 1416 1415 1414 1413 1412 1411 1411 1410 1410 1409 1408
1501 1500 1498 1497 1496 1494 1493 1492 1490 1489 1487 1486 1484 1483 1482 1480 1478 1477 1475 1474 1472 1470 1468 1466 1465 1463 1461 1459 1458 1456 1455 1453 1451 1449 1447 1446 1444 1442 1441 1439 1438 1436 1435 1433 1432 1430 1429 1428 1426 1425 1423 1422 1420 1419 1417 1416 1415 1413 1412 1411 1410 1409 1408 1408 1407 1407 1406 1405 1404
1499 1497 1496 1495 1493 1492 1490 1489 1488 1486 1484 1483 1482 1480 1479 1477 1476 1474 1472 1471 1469 1467 1465 1463 1461 1459 1458 1456 1454 1453 1451 1449 1447 1445 1443 1442 1440 1438 1437 1435 1434 1433 1431 1429 1428 1426 1425 1423 1422 1421 1419 1418 1416 1415 1413 1412 1411 1409 1408 1407 1406 1405 1404 1403 1403 1403 1402 1401 1401
1496 1495 1493 1492 1491 1489 1488 1486 1485 1483 1482 1480 1479 1477 1476 1474 1473 1471 1469 1467 1466 1464 1462 1459 1458 1456 1454 1453 1451 1449 1447 1446 1443 1442 1439 1438 1437 1435 1433 1432 1430 1428 1427 1425 1424 1422 1421 1419 1418 1417 1415 1414 1412 1411 1409 1408 1407 1405 1404 1403 1402 1401 1400 1399 1399 1398 1398 1398 1397
1494 1492 1491 1489 1488 1486 1485 1483 1482 1480 1478 1477 1476 1474 1473 1471 1469 1468 1466 1464 1462 1460 1458 1456 1454 1452 1450 1449 1447 1445 1443 1442 1440 1438 1436 1434 1433 1431 1429 1428 1426 1424 1423 1421 1420 1418 1417 1415 1414 1413 1411 1409 1408 1407 1405 1404 1403 1401 1400 1399 1398 1397 1396 1396 1395 1395 1394 1394 1393
1491 1489 1488 1486 1485 1483 1482 1480 1478 1477 1476 1474 1473 1471 1469 1468 1466 1464 1463 1461 1459 1457 1455 1453 1451 1449 1447 1445 1443 1441 1439 1438 1436 1434 1432 1430 1428 1427 1425 1423 1422 1420 1418 1417 1415 1414 1413 1411 1410 1408 1407 1405 1404 1403 1401 1400 1399 1398 1396 1395 1394 1393 1393 1393 1392 1391 1391 1390 1390
1488 1487 1485 1483 1482 1480 1479 1477 1476 1474 1473 1471 1469 1468 1466 1464 1463 1461 1459 1458 1456 1454 1452 1450 1448 1446 1444 1442 1440 1438 1436 1433 1432 1430 1428 1427 1425 1423 1421 1419 1418 1416 1414 1413 1412 1410 1409 1407 1405 1404 1403 1402 1400 1398 1397 1396 1395 1393 1393 1391 1391 1390 1389 1389 1388 1388 1388 1387 1386
1485 1484 1482 1481 1479 1478 1476 1474 1473 1471 1470 1468 1467 1465 1463 1461 1459 1458 1456 1454 1453 1451 1448 1447 1444 1442 1440 1438 1436 1434 1432 1430 1428 1426 1424 1423 1421 1419 1417 1415 1414 1412 1411 1409 1408 1407 1405 1404 1402 1400 1399 1398 1396 1394 1393 1392 1391 1390 1388 1388 1387 1386 1386 1385 1385 1385 1384 1383 1383
1483 1481 1479 1478 1476 1475 1473 1472 1470 1468 1467 1465 1463 1462 1460 1458 1456 1454 1453 1451 1449 1447 1445 1443 1441 1439 1437 1434 1432 1430 1428 1427 1424 1422 1420 1418 1417 1416 1414 1412 1410 1408 1407 1406 1405 1404 1403 1401 1400 1398 1396 1395 1393 1391 1390 1388 1387 1386 1385 1384 1384 1383 1382 1382 1381 1381 1381 1380 1379
1480 1478 1477 1475 1474 1472 1471 1469 1468 1466 1464 1463 1461 1459 1457 1455 1453 1451 1449 1448 1445 1443 1442 1439 1437 1435 1433 1431 1429 1427 1425 1423 1421 1419 1417 1415 1413 1412 1410 1409 1407 1405 1404 1403 1402 1400 1399 1398 1398 1396 1395 1393 1391 1389 1388 1386 1385 1384 1383 1382 1381 1380 1379 1378 1378 1377 1377 1377 1376
1477 1476 1474 1473 1471 1470 1468 1467 1465 1463 1461 1460 1458 1456 1454 1452 1450 1448 1446 1444 1442 1440 1438 1436 1434 1432 1429 1427 1425 1423 1422 1420 1418 1416 1414 1412 1410 1408 1407 1405 1404 1402 1401 1399 1398 1397 1396 1395 1394 1394 1393 1391 1389 1387 1386 1384 1383 1382 1381 1380 1379 1378 1377 1375 1374 1374 1373 1373 1372
1475 1473 1472 1470 1469 1467 1466 1464 1462 1460 1458 1457 1455 1453 1451 1449 1447 1445 1443 1441 1439 1437 1435 1433 1430 1428 1426 1424 1422 1420 1418 1417 1415 1413 1411 1409 1407 1405 1403 1402 1400 1399 1398 1397 1395 1394 1393 1392 1391 1390 1390 1388 1387 1385 1383 1382 1380 1379 1378 1378 1376 1375 1374 1373 1372 1371 1370 1369 1368
1473 1471 1469 1468 1466 1465 1463 1462 1460 1458 1456 1454 1452 1450 1448 1446 1444 1442 1440 1438 1436 1433 1431 1429 1427 1425 1423 1421 1419 1417 1415 1413 1412 1410 1408 1406 1404 1402 1400 1399 1397 1395 1394 1393 1393 1391 1390 1389 1388 1387 1386 1386 1384 1383 1381 1379 1378 1377 1376 1375 1374 1373 1372 1371 1370 1368 1367 1366 1365
1470 1468 1467 1465 1464 1462 1461 1459 1457 1455 1453 1451 1449 1447 1445 1443 1441 1439 1437 1435 1433 1431 1428 1427 1424 1422 1420 1418 1416 1414 1412 1410 1408 1407 1405 1403 1400 1398 1397 1396 1394 1393 1391 1390 1389 1388 1387 1386 1385 1384 1383 1383 1382 1380 1378 1377 1376 1374 1373 1372 1371 1371 1370 1368 1367 1366 1365 1363 1363
1468 1466 1465 1463 1461 1459 1458 1456 1454 1452 1450 1448 1446 1444 1442 1440 1438 1436 1434 1432 1429 1427 1425 1423 1421 1419 1417 1415 1413 1411 1409 1407 1405 1403 1402 1400 1398 1396 1394 1393 1391 1389 1388 1388 1386 1385 1384 1383 1382 1381 1381 1380 1379 1378 1376 1374 1373 1372 1371 1369 1368 1368 1367 1366 1364 1363 1362 1362 1361
1466 1464 1462 1460 1458 1457 1455 1453 1451 1449 1447 1445 1443 1441 1439 1437 1435 1433 1431 1429 1427 1424 1422 1420 1418 1416 1413 1412 1410 1408 1406 1404 1402 1401 1399 1397 1395 1393 1391 1389 1388 1387 1385 1384 1383 1382 1381 1380 1379 1379 1378 1377 1376 1375 1373 1372 1370 1369 1368 1367 1366 1365 1364 1363 1361 1361 1360 1359 1359
1463 1462 1460 1458 1456 1454 1452 1450 1448 1446 1444 1442 1440 1438 1436 1434 1432 1430 1428 1426 1424 1422 1419 1417 1415 1413 1410 1408 1407 1405 1403 1401 1400 1398 1396 1394 1393 1390 1388 1387 1385 1384 1383 1382 1381 1380 1379 1378 1377 1376 1375 1374 1373 1372 1370 1369 1368 1366 1365 1364 1363 1362 1361 1360 1359 1359 1358 1357 1356
1461 1459 1457 1455 1453 1451 1449 1447 1445 1443 1442 1439 1438 1436 1434 1432 1429 1427 1425 1423 1421 1419 1417 1414 1412 1410 1408 1406 1404 1402 1400 1398 1397 1395 1393 1392 1390 1388 1386 1384 1383 1381 1380 1379 1378 1377 1376 1375 1374 1373 1373 1372 1370 1369 1368 1366 1365 1363 1362 1361 1360 1359 1358 1358 1357 1356 1355 1354 1353
1458 1456 1454 1453 1451 1448 1447 1445 1443 1441 1439 1437 1435 1433 1431 1429 1427 1424 1422 1420 1418 1416 1413 1412 1410 1408 1406 1404 1402 1400 1398 1396 1394 1392 1391 1389 1387 1385 1383 1381 1380 1379 1378 1377 1376 1375 1374 1373 1372 1371 1370 1369 1367 1366 1364 1363 1361 1360 1359 1358 1357 1356 1354 1354 1353 1353 1352 1351 1350
1456 1454 1452 1450 1448 1446 1444 1442 1440 1438 1436 1434 1432 1430 1428 1426 1424 1422 1420 1418 1415 1413 1410 1408 1407 1405 1403 1401 1399 1398 1396 1394 1392 1389 1388 1386 1385 1383 1381 1379 1378 1377 1376 1375 1374 1373 1372 1371 1370 1368 1368 1366 1364 1363 1361 1360 1358 1357 1356 1355 1354 1353 1352 1351 1350 1350 1349 1348 1347
1454 1452 1450 1448 1446 1444 1442 1440 1438 1436 1433 1432 1430 1428 1425 1423 1421 1419 1417 1415 1413 1410 1408 1406 1404 1403 1401 1399 1397 1395 1393 1392 1389 1387 1385 1384 1383 1381 1379 1377 1375 1374 1373 1373 1372 1371 1369 1368 1367 1366 1364 1363 1361 1360 1358 1357 1356 1355 1353 1352 1351 1350 1350 1349 1348 1347 1346 1345 1344
1452 1450 1448 1446 1443 1442 1439 1438 1436 1433 1431 1429 1427 1425 1423 1421 1418 1416 1414 1413 1410 1408 1405 1403 1402 1400 1398 1396 1394 1392 1390 1389 1388 1386 1384 1382 1381 1379 1378 1375 1373 1372 1371 1370 1369 1368 1367 1366 1364 1363 1362 1361 1359 1358 1356 1355 1353 1352 1351 1350 1348 1348 1347 1346 1345 1343 1343 1341 1341
1450 1448 1446 1444 1442 1439 1437 1435 1433 1431 1429 1427 1424 1422 1420 1418 1416 1414 1412 1411 1409 1406 1404 1401 1399 1397 1395 1393 1392 1389 1388 1387 1386 1385 1383 1381 1379 1378 1376 1374 1371 1370 1369 1368 1367 1366 1364 1363 1362 1361 1360 1358 1357 1355 1354 1353 1351 1350 1348 1348 1346 1345 1344 1343 1342 1341 1340 1339 1338
1448 1446 1444 1442 1439 1437 1435 1433 1431 1429 1427 1425 1423 1420 1418 1416 1414 1412 1410 1408 1407 1404 1402 1399 1397 1395 1393 1392 1390 1388 1386 1384 1383 1383 1381 1379 1378 1376 1374 1372 1370 1368 1366 1366 1364 1363 1362 1361 1359 1358 1358 1356 1355 1353 1352 1350 1349 1348 1347 1346 1344 1343 1342 1341 1340 1339 1338 1337 1336
1445 1443 1441 1439 1437 1435 1433 1431 1428 1427 1425 1423 1421 1418 1416 1414 1412 1410 1408 1406 1404 1402 1400 1397 1394 1393 1391 1390 1388 1386 1384 1382 1381 1380 1379 1377 1375 1373 1372 1370 1368 1366 1364 1363 1362 1361 1360 1358 1357 1356 1356 1354 1353 1351 1350 1348 1347 1346 1345 1344 1343 1341 1340 1339 1338 1337 1336 1334 1333